Location: Oak Glen
(34.0495°N, 116.9470°E)
Time: 03:50:48
(UTC-08:00)

Vanguard 1 - Pass Details

Date: 20 June 2018
Orbit: 650 x 3833 km, 34.2° (Epoch: 18 December)

Event Time Altitude Azimuth Distance (km) Brightness Sun altitude
Rises 20:21:58 0° 285° (WNW) 6,455 14.1 74.5°
Reaches altitude 10° 20:25:39 10° 283° (WNW) 5,767 14.0 75.0°
Maximum altitude 20:45:22 71° 205° (SSW) 3,897 15.0 77.7°
Drops below altitude 10° 21:08:21 10° 127° (SE) 6,544 14.5 79.3°
Sets 21:12:53 0° 125° (SE) 7,314 14.6 79.4°
